User: anonymous   Login
Location: Trois-Rivi�res
(46.3500°N, 72.5500°W)
Time: 20:44:56
(UTC-05:00)
Language:

UWE-3 - Orbit

View from above orbital plane
View from above orbital plane
View from above satellite
View from above satellite

Ground track
Ground track

The orbit data is extracted from the following two-line orbital elements,

1 39446U 13066AG  17328.59434428 +.00000316 +00000-0 +48669-4 0  9999
2 39446 097.6121 356.5505 0071648 122.2874 238.5305 14.78096971214303
Epoch (UTC): 24 November 2017 14:15:51
Eccentricity: 0.0071648
inclination: 97.6121°
perigee height: 585 km
apogee height: 685 km
right ascension of ascending node: 356.5505°
argument of perigee: 122.2874°
revolutions per day: 14.78096971
mean anomaly at epoch: 238.5305°
orbit number at epoch: 21430

The dashed part of the orbit path shows where the satellite is in the earth's shadow,  

DLR